Regional Weather Roundup
Issued by NWS

Home | Current Version | Previous Version | Text Only | Print | Product List | Glossary On
Versions: 1 2 3 4 5 6 7 8 9 10 11 12 13 14 15 16 17 18 19 20 21 22 23 24 25 26 27 28 29 30 31 32 33 34 35 36 37 38 39 40 41 42 43 44 45 46 47 48 49 50
000
ASUS45 KREV 031310
RWRNV
NEVADA REGIONAL WEATHER ROUNDUP
NATIONAL WEATHER SERVICE RENO NV
600 AM PDT FRI JUL 03 2015

NOTE: "FAIR" INDICATES FEW OR NO CLOUDS BELOW 12,000 FEET WITH NO
SIGNIFICANT WEATHER AND/OR OBSTRUCTIONS TO VISIBILITY.

NVZ001-003-004-031400-
WESTERN NEVADA

CITY           SKY/WX    TMP DP  RH WIND       PRES   REMARKS
RENO           PTCLDY    70  58  65 S8        30.10R
CARSON CITY    FAIR      66  57  72 CALM      30.14R
MINDEN         FAIR      59  59 100 CALM      30.14R
SLIDE MTN        N/A     59  41  51 SE5         N/A
PYRAMID LAKE     N/A     73 N/A N/A W5          N/A
FALLON         PTCLDY    71  58  63 SW6       30.05R
LOVELOCK       CLOUDY    73  57  57 CALM      30.04R
HAWTHORNE      CLEAR     68  59  73 E7        30.09R
$$

NVZ002-CAZ072-073-031400-
NORTHERN AND CENTRAL SIERRA

CITY           SKY/WX    TMP DP  RH WIND       PRES   REMARKS
S. LAKE TAHOE  PTCLDY    58  54  86 CALM      30.23R
TRUCKEE        MOCLDY    54  54 100 E5        30.22R
SQUAW VLY 8000 NOT AVBL
SUSANVILLE     MOCLDY    70  59  68 SW3       30.08S
BLUE CANYON    MOCLDY    66  54  65 SE5       30.18R
MAMMOTH LAKES  MOCLDY    57  55  94 CALM      30.31S
BRIDGEPORT     FAIR      53  49  86 CALM      30.27R
$$

NVZ030-031-036-031400-
NORTHERN NEVADA

CITY           SKY/WX    TMP DP  RH WIND       PRES   REMARKS
ELKO           MOCLDY    63  48  58 E5        30.13R
WINNEMUCCA     PTCLDY    71  51  49 S10       30.05
WENDOVER       PTCLDY    75  54  46 E3        30.02R
$$

NVZ035-037-031400-
CENTRAL NEVADA

CITY           SKY/WX    TMP DP  RH WIND       PRES   REMARKS
ELY            CLOUDY    63  54  72 S9        30.21S
EUREKA           N/A     64  50  60 S3        30.18S
$$

NVZ013-014-031400-
SOUTH CENTRAL NEVADA

CITY           SKY/WX    TMP DP  RH WIND       PRES   REMARKS
TONOPAH        CLEAR     65  52  62 N8        30.16R
$$

NVZ017-020-022-031400-
SOUTHERN NEVADA

CITY           SKY/WX    TMP DP  RH WIND       PRES   REMARKS
LAS VEGAS      MOCLDY    88  52  29 S15       29.83R
N. LAS VEGAS   CLEAR     87  55  33 CALM      29.86R
NELLIS AFB     CLEAR     88  53  29 S6        29.83R
HENDERSON      CLEAR     82  54  37 S12       29.91R
MERCURY        CLEAR     79  50  36 N8        29.97R
$$



USA.gov is the U.S. government's official web portal to all federal, state and local government web resources and services.